Pensacola, FL

5:20 PM CDT on March 23, 2017 (GMT -0500)
Pensacola Regional

Weather History for KPNS - July, 2013

Change the Weather History Date:

Tuesday, July 16, 2013

  Actual Average Record
Temperature  
Mean Temperature 82 °F 82 °F  
Max Temperature 89 °F 90 °F 101 °F (2000)
Min Temperature 75 °F 75 °F 61 °F (1967)
Cooling Degree Days 17 17  
Month to date cooling degree days 240 272  
Year to date cooling degree days 1196 1185  
Since 1 June cooling degree days 754 737  
Growing Degree Days 32 (Base 50)    
Moisture  
Dew Point 72 °F    
Average Humidity 76    
Maximum Humidity 88    
Minimum Humidity 63    
Precipitation  
Precipitation 0.01 in 0.23 in 2.23 in (1884)
Month to date precipitation 11.36 3.76  
Year to date precipitation 41.75 34.36  
Sea Level Pressure  
Sea Level Pressure 30.15 in    
Wind  
Wind Speed 9 mph (East)    
Max Wind Speed 21 mph    
Max Gust Speed 26 mph    
Visibility 10 miles    
Events      
T = Trace of Precipitation, MM = Missing Value Source: NWS Daily Summary

Daily Weather History Graph

Daily Weather History Graph

Search for Another Location

Airport or City:

Trip Planner

Search our weather history database for the weather conditions in past years. The results will help you decide how hot, cold, wet, or windy it might be!

Date:

Astronomy

Jul. 16, 2013 Rise Set
Actual Time 5:57 AM CDT 7:51 PM CDT
Civil Twilight 5:30 AM CDT 8:18 PM CDT
Nautical Twilight 4:57 AM CDT 8:51 PM CDT
Astronomical Twilight 4:23 AM CDT 9:25 PM CDT
Moon 1:42 PM CDT (7/16) 12:14 AM CDT (7/16)
Length of Visible Light 14h 48m
Length of Day
13h 54m
First Quarter, 56% of the Moon is Illuminated
Jul 16
First Quarter
Jul 22
Full
Jul 29
Last Quarter
Aug 6
New
Aug 14
First Quarter

Hourly Weather History & Observations

Time (CDT) Temp. Heat Index Dew Point Humidity Pressure Visibility Wind Dir Wind Speed Gust Speed Precip Events Conditions
12:53 AM 75.9 °F - 71.1 °F 85% 30.14 in 10.0 mi NE 5.8 mph - N/A   Partly Cloudy
1:53 AM 75.9 °F - 71.1 °F 85% 30.13 in 10.0 mi NE 5.8 mph - N/A   Clear
2:53 AM 75.0 °F - 71.1 °F 87% 30.12 in 10.0 mi NE 4.6 mph - N/A   Clear
3:53 AM 75.9 °F - 72.0 °F 87% 30.11 in 10.0 mi Variable 6.9 mph - N/A   Mostly Cloudy
4:03 AM 75.2 °F - 71.6 °F 89% 30.10 in 10.0 mi ENE 5.8 mph - N/A   Mostly Cloudy
4:49 AM 75.2 °F - 71.6 °F 89% 30.10 in 10.0 mi ENE 6.9 mph - N/A   Overcast
4:53 AM 75.9 °F - 72.0 °F 87% 30.10 in 10.0 mi ENE 6.9 mph - N/A   Overcast
5:04 AM 75.2 °F - 71.6 °F 89% 30.10 in 10.0 mi ENE 6.9 mph - N/A   Mostly Cloudy
5:53 AM 75.9 °F - 72.0 °F 87% 30.11 in 10.0 mi ENE 9.2 mph - N/A   Overcast
6:53 AM 77.0 °F - 72.0 °F 84% 30.14 in 10.0 mi East 4.6 mph - N/A   Overcast
7:53 AM 78.1 °F - 72.0 °F 81% 30.14 in 10.0 mi East 6.9 mph 19.6 mph N/A   Overcast
8:53 AM 81.0 °F 85.2 °F 72.0 °F 74% 30.16 in 10.0 mi East 10.4 mph 17.3 mph N/A   Mostly Cloudy
9:53 AM 82.9 °F 88.0 °F 72.0 °F 69% 30.18 in 10.0 mi East 10.4 mph 17.3 mph N/A   Overcast
10:53 AM 82.9 °F 88.0 °F 72.0 °F 69% 30.17 in 10.0 mi East 11.5 mph - N/A   Overcast
11:05 AM 84.2 °F 89.6 °F 71.6 °F 66% 30.17 in 10.0 mi East 13.8 mph 20.7 mph N/A   Overcast
11:20 AM 84.2 °F 89.6 °F 71.6 °F 66% 30.17 in 10.0 mi East 11.5 mph - N/A   Mostly Cloudy
11:53 AM 84.0 °F 89.6 °F 72.0 °F 67% 30.19 in 10.0 mi ESE 15.0 mph 19.6 mph N/A   Overcast
12:53 PM 88.0 °F 95.6 °F 73.0 °F 61% 30.18 in 10.0 mi ESE 18.4 mph 24.2 mph N/A   Scattered Clouds
1:53 PM 87.1 °F 94.5 °F 73.0 °F 63% 30.16 in 10.0 mi SE 15.0 mph 24.2 mph N/A   Overcast
2:53 PM 87.1 °F 95.4 °F 73.9 °F 65% 30.15 in 10.0 mi SE 18.4 mph - N/A   Clear
3:53 PM 87.1 °F 95.4 °F 73.9 °F 65% 30.14 in 10.0 mi SE 15.0 mph 21.9 mph N/A   Clear
4:53 PM 86.0 °F 93.8 °F 73.9 °F 67% 30.14 in 10.0 mi SSE 10.4 mph - N/A   Clear
5:53 PM 82.9 °F 88.8 °F 73.0 °F 72% 30.15 in 10.0 mi SE 8.1 mph - N/A   Clear
6:53 PM 84.0 °F 90.2 °F 73.0 °F 69% 30.17 in 10.0 mi ESE 9.2 mph - N/A   Partly Cloudy
7:53 PM 79.0 °F - 73.9 °F 84% 30.18 in 10.0 mi East 4.6 mph - 0.01 in   Scattered Clouds
8:53 PM 79.0 °F - 73.0 °F 82% 30.18 in 10.0 mi East 3.5 mph - N/A   Scattered Clouds
9:53 PM 78.1 °F - 73.0 °F 84% 30.19 in 10.0 mi NE 4.6 mph - N/A   Clear
10:53 PM 77.0 °F - 73.0 °F 88% 30.19 in 10.0 mi NE 3.5 mph - N/A   Clear
11:53 PM 77.0 °F - 73.0 °F 88% 30.20 in 10.0 mi NNE 3.5 mph - N/A   Clear